Regional Weather Roundup
Issued by NWS

Home | Current Version | Previous Version | Text Only | Print | Product List | Glossary On
Versions: 1 2 3 4 5 6 7 8 9 10 11 12 13 14 15 16 17 18 19 20 21 22 23 24 25 26 27 28 29 30 31 32 33 34 35 36 37 38 39 40 41 42 43 44 45 46 47 48 49 50
000
ASUS43 KMPX 161201
RWRMN
WEATHER ROUNDUP FOR MINNESOTA
NATIONAL WEATHER SERVICE TWIN CITIES/CHANHASSEN MN
700 AM CDT TUE SEP 16 2014


NOTE: "FAIR" INDICATES FEW OR NO CLOUDS BELOW 12,000 FEET WITH NO
SIGNIFICANT WEATHER AND/OR OBSTRUCTIONS TO VISIBILITY. N/A MEANS
CURRENT SKY AND/OR WEATHER CONDITIONS ARE NOT AVAILABLE.

MNZ060>063-068>070-161300-
   Twin Cities Metro

CITY           SKY/WX    TMP DP  RH WIND       PRES   REMARKS
TWIN CITIES    CLEAR     43  39  86 S5        30.19S
6HR MIN TEMP:  43; 6HR MAX TEMP:  48;

ST PAUL        CLEAR     40  40 100 CALM      30.20F
CRYSTAL        CLEAR     42  39  89 CALM      30.18S
BLAINE         CLEAR     43  43 100 CALM      30.18S
LAKEVILLE      CLEAR     36  34  93 CALM      30.20S
EDEN PRAIRIE   CLEAR     40  38  93 SW5       30.18F
6HR MIN TEMP:  40; 6HR MAX TEMP:  44;

SOUTH ST PAUL  CLEAR     40  38  94 CALM      30.19S
LAKE ELMO      FAIR      39  39 100 CALM      30.20S
$$
MNZ001>005-007-008-013>017-022>024-027-028-161300-
   Northwest Minnesota

CITY           SKY/WX    TMP DP  RH WIND       PRES   REMARKS
BEMIDJI        CLEAR     41  37  84 SW6       30.07S
HALLOCK        MOCLDY    43  39  87 S8        29.99S
ROSEAU         MOCLDY    50  41  71 SW6       29.99S
WARROAD        CLOUDY    50  43  76 SW10      29.98S
THIEF RVR FALL CLEAR     43  37  81 SW8       30.05S
CROOKSTON      CLEAR     39  37  93 S7        30.07S
FOSSTON        CLEAR     37  36  93 S7        30.09S
DETROIT LAKES  CLEAR     45  37  76 SW5       30.12S
MOORHEAD       CLEAR     41  39  93 S8        30.11S
PARK RAPIDS    CLEAR     42  36  79 CALM      30.11S
MAHNOMEN       FAIR      39  36  87 S7        30.09S
$$
MNZ006-009>011-018-025>026-161300-
   North Central Minnesota

CITY           SKY/WX    TMP DP  RH WIND       PRES   REMARKS
BAUDETTE       CLOUDY    49  40  71 SW8       29.99S
FLAG ISLAND    CLOUDY    52  41  66 W14       29.94R
INTL FALLS     CLOUDY    42  40  92 SW7       29.99S
6HR MIN TEMP:  36; 6HR MAX TEMP:  42;

WASKISH        PTCLDY    50  43  76 CALM      30.04S
BIG FORK       CLEAR     45  37  76 SW8       30.06R
LONGVILLE      CLEAR     45  39  81 SW6       30.10S
GRAND RAPIDS   CLEAR     46  36  66 W8        30.09R
CRANE LAKE     CLEAR     41  37  87 CALM      30.03S
ORR            CLEAR     41  37  87 CALM      30.02S
COOK           PTCLDY    43  37  81 SW3       30.05S
WALKER         FAIR      47  36  65 SW9G20    30.09S
$$
MNZ012-019>021-037-161300-
   Northeast Minnesota

CITY           SKY/WX    TMP DP  RH WIND       PRES   REMARKS
DULUTH         PTCLDY    44  35  70 W14       30.10R
6HR MIN TEMP:  44; 6HR MAX TEMP:  47;

ELY            MOCLDY    41  37  87 SW5       30.04S
HIBBING        MOCLDY    35  33  92 CALM      30.08S
EVELETH        PTCLDY    37  34  87 W5        30.08S
DULUTH HARBOR  CLEAR     45  39  81 SW14      30.11R
TWO HARBORS    CLEAR     46  36  66 W8        30.06R
SILVER BAY     CLEAR     45  39  81 W6        30.04S
GRAND MARAIS     N/A     44  40  85 W5        30.02S
G MARAIS ARPRT PTCLDY    43  34  70 W9G17     30.02S
$$
MNZ029>031-032-039>041-046>048-054>057-064-161300-
   West Central Minnesota

CITY           SKY/WX    TMP DP  RH WIND       PRES   REMARKS
FERGUS FALLS   CLEAR     39  34  81 S5        30.14F
WHEATON        CLEAR     39  36  87 S6        30.15F
MORRIS         CLEAR     37  36  93 SE6       30.14S
ALEXANDRIA     CLEAR     42  36  79 SW8       30.16F
ELBOW LAKE     FAIR      38  35  90 S7        30.14S
WADENA         CLEAR     43  36  75 SW6       30.12F
GLENWOOD       CLEAR     37  36  93 SW7       30.16S
APPLETON       CLEAR     37  36  93 CALM      30.15F
BENSON         CLEAR     34  34 100 CALM      30.16F
ORTONVILLE     CLEAR     39  36  87 S5        30.14F
MADISON        CLEAR     39  37  93 SW3       30.16S
WILLMAR        FAIR      39  36  87 CALM      30.19S
$$
MNZ033>034-036-042>043-049>051-058-059-161300-
   Central Minnesota

CITY           SKY/WX    TMP DP  RH WIND       PRES   REMARKS
ST CLOUD       CLEAR     39  36  89 CALM      30.16F
6HR MIN TEMP:  39; 6HR MAX TEMP:  44;

SAUK CENTRE    FAIR      39  35  84 CALM      30.16S
PAYNESVILLE    CLEAR     33  33  99 CALM      30.18S
AITKIN         CLEAR     46  37  71 SW3       30.11S
PINE RIVER     CLEAR     43  36  75 CALM      30.15S
BRAINERD       CLEAR     37  34  89 S3        30.14S
STAPLES        CLEAR     39  36  87 S3        30.13S
LONG PRAIRIE     N/A     37  34  87 S5        30.16S
LITTLE FALLS   CLEAR     36  34  93 CALM      30.16S
LITCHFIELD     CLEAR     43  39  87 CALM      30.18S
BUFFALO        CLEAR     39  37  89 CALM      30.19S
MAPLE LAKE     CLEAR     43  39  88 CALM      30.18F
$$
MNZ037-044-045-052-053-161300-
   East Central Minnesota

CITY           SKY/WX    TMP DP  RH WIND       PRES   REMARKS
PRINCETON      CLEAR     37  36  93 CALM      30.17S
MORA           CLEAR     39  34  81 CALM      30.17S
CAMBRIDGE      CLEAR     39  34  81 CALM      30.15S
RUSH CITY      CLEAR     36  35  96 CALM      30.17S
MOOSE LAKE     CLEAR     34  34 100 W3        30.12R
HINCKLEY       FAIR      36  36 100 CALM      30.16S
CLOQUET        CLEAR     43  37  81 SW8       30.11S
MCGREGOR       CLEAR     41  36  81 CALM      30.13S
$$
MNZ071>073-080-081-089-090-097-098-161300-
   Southwest Minnesota

CITY           SKY/WX    TMP DP  RH WIND       PRES   REMARKS
MONTEVIDEO     CLEAR     39  36  87 SW5       30.17F
GRANITE FALLS  CLEAR     35  34  97 S8        30.19S WCI  28
CANBY          CLEAR     46  40  77 SW8       30.17F
MARSHALL       CLEAR     45  37  76 SW8       30.17S
REDWOOD FALLS  CLEAR     41  37  86 SW7       30.19S
OLIVIA         CLEAR     39  36  87 S3        30.18S
PIPESTONE      CLEAR     39  36  87 S5        30.18F
WINDOM         CLEAR     37  37 100 CALM      30.21S
WORTHINGTON    CLEAR     37  36  93 SW6       30.22S
JACKSON        CLEAR     39  36  87 SW3       30.21S
TRACY          CLEAR     43  40  89 SW7       30.19S
SLAYTON        CLEAR     42  39  88 CALM      30.20F
$$
MNZ065>067-074>077-082>085-091>093-161300-
   South Central Minnesota

CITY           SKY/WX    TMP DP  RH WIND       PRES   REMARKS
MANKATO        CLEAR     37  34  87 S6        30.21R
NEW ULM        CLEAR     39  39 100 CALM      30.19S
ST JAMES       CLEAR     41  37  87 S3        30.21S
FAIRMONT       CLEAR     39  36  87 SW6       30.21S
GLENCOE        CLEAR     39  36  86 CALM      30.18S
FARIBAULT      CLEAR     39  36  87 CALM      30.21S
OWATONNA       CLEAR     39  37  93 CALM      30.22R
WASECA         CLEAR     36  32  87 CALM      30.23S
ALBERT LEA     CLEAR     39  39 100 CALM      30.22S
$$
MNZ078>079-086>088-094>096-161300-
   Southeast Minnesota

CITY           SKY/WX    TMP DP  RH WIND       PRES   REMARKS
ROCHESTER      CLEAR     38  35  89 SW6       30.22S
6HR MIN TEMP:  38; 6HR MAX TEMP:  44;

RED WING       CLEAR     36  36 100 CALM      30.20S
STANTON        CLEAR     39  37  90 S3        30.20S
DODGE CENTER   PTCLDY    37  37 100 SW6       30.21S
WINONA         FOG       39  37  93 CALM      30.22S VSB 1/4
AUSTIN         CLEAR     36  36 100 CALM      30.22S FOG
PRESTON        CLEAR     40  40  99 SW5       30.22S
$$
ABBREVIATIONS USED IN REMARKS
   TC - TEMPERATURES IN CELSIUS
  WCI - WIND CHILL INDEX
   HX - HEAT INDEX
  VSB - VISIBILITY
$$


USA.gov is the U.S. government's official web portal to all federal, state and local government web resources and services.